Regional Weather Roundup
Issued by NWS

Home | Current Version | Previous Version | Graphics & Text | Print | Product List | Glossary On
Versions: 1 2 3 4 5 6 7 8 9 10 11 12 13 14 15 16 17 18 19 20 21 22 23 24 25 26 27 28 29 30 31 32 33 34 35 36 37 38 39 40 41 42 43 44 45 46 47 48 49 50
000
ASUS43 KTOP 031708
RWRKS

WEATHER ROUNDUP FOR KANSAS
NATIONAL WEATHER SERVICE GOODLAND KS
1200 PM CDT FRI JUL 03 2015

NOTE:  "FAIR" INDICATES FEW OR NO CLOUDS BELOW 12,000 FEET WITH NO
SIGNIFICANT WEATHER AND/OR OBSTRUCTIONS TO VISIBILITY.

KSZ001>006-013>018-027>032-041>047-031800-
NORTHWEST KANSAS

CITY           SKY/WX    TMP DP  RH WIND       PRES   REMARKS
GOODLAND       SUNNY     80  55  42 VRB3      30.10F
HAYS           MOSUNNY   75  59  57 N12       30.05S
HILL CITY      MOSUNNY   75  63  66 VRB7      30.07F
RUSSELL        MOSUNNY   78  63  59 N13       30.03S
$$

KSZ061>065-074>080-084>089-031800-
SOUTHWEST KANSAS

CITY           SKY/WX    TMP DP  RH WIND       PRES   REMARKS
DODGE CITY     MOSUNNY   80  58  46 NE8       30.05S
ELKHART          N/A     86  59  40 E6          N/A
GARDEN CITY    MOSUNNY   81  59  47 SE7       30.06S
GREAT BEND     MOSUNNY   73  63  68 NE10      30.05F
LIBERAL        MOSUNNY   82  64  54 SE5       30.08R
PRATT          SUNNY     81  59  47 N14       30.04R
$$

KSZ066>073-081>083-090>101-031800-
SOUTHEAST KANSAS

CITY           SKY/WX    TMP DP  RH WIND       PRES   REMARKS
CHANUTE        MOSUNNY   81  68  64 CALM      29.93S
COFFEYVILLE    MOSUNNY   83  71  67 N9        29.92S
HUTCHINSON     MOSUNNY   81  66  60 N14       30.00F
MEDICINE LODGE   N/A     87  59  38 N10G20    29.98S
NEWTON         PTSUNNY   75  63  64 N7        30.01S
PARSONS        PTSUNNY   81  71  71 W6        29.93F
WICHITA INTL   CLOUDY    76  65  68 N14       29.98S
WICHITA JABRA  CLOUDY    74  66  76 N12       29.99R
WICHITA MCCONL CLOUDY    75  66  73 N14       29.99S
WINFIELD       SUNNY     83  65  54 N17       29.97S
$$

KSZ007>012-019>026-033>040-048>060-102>105-031800-
NORTHEAST KANSAS

CITY           SKY/WX    TMP DP  RH WIND       PRES   REMARKS
CONCORDIA      CLOUDY    74  65  73 NE8       30.03S
EMPORIA        CLOUDY    73  66  78 NE13      29.97R
LAWRENCE       PTSUNNY   75  64  68 NE8       29.97S
MANHATTAN      CLOUDY    74  66  76 NE8       30.00R
MARYSVILLE     PTSUNNY   73  64  73 NE8       30.01S
OLATHE IND     CLOUDY    74  66  76 NE5       29.98S
OLATHE EXE     PTSUNNY   74  64  71 NE7       29.97R
SALINA         MOSUNNY   79  63  57 NE12      30.01S
TOPEKA BILLARD CLOUDY    74  65  73 NE6       29.98R
TOPEKA FORBES  PTSUNNY   76  65  68 NE8       29.98R
$$



USA.gov is the U.S. government's official web portal to all federal, state and local government web resources and services.